When you browse on this site, cookies collect data to enhance your experience and personalize the content and advertising you see.
Visit our Privacy Policy to learn more. By continuing to use the site, you agree to this use of cookies and data.
  • In Hungary
  • List of Countries
  • For 7 days
  • Water Temperature
  • Weather Map
  • News
  • Weather Widgets
  • user-avatar
    Login

    Hourly Weather Flensburg

    Today, 12 December, Thursday

    Time Temperature Precipitation Wind Pressure Humidity
    00:00 +4°C° 0 mm 2 mps 749 mmHg 93%
    01:00 +4°C° 0 mm 2 mps 749 mmHg 94%
    02:00 +4°C° 0 mm 2 mps 748 mmHg 94%
    03:00 +3°C° 0 mm 3 mps 747 mmHg 95%
    04:00 +2°C° 0 mm 3 mps 747 mmHg 95%
    05:00 +2°C° 0 mm 3 mps 747 mmHg 96%
    06:00 +2°C° 0 mm 3 mps 747 mmHg 96%
    07:00 +1°C° 0 mm 4 mps 747 mmHg 96%
    08:00 +1°C° 0 mm 4 mps 746 mmHg 93%
    09:00 +2°C° 0 mm 5 mps 746 mmHg 91%
    10:00 +2°C° 0 mm 5 mps 746 mmHg 89%
    11:00 +3°C° 0 mm 5 mps 746 mmHg 87%
    12:00 +3°C° 0 mm 6 mps 746 mmHg 85%
    13:00 +3°C° 0 mm 6 mps 746 mmHg 84%
    14:00 +3°C° 0.1 mm 5 mps 745 mmHg 84%
    15:00 +3°C° 0.1 mm 5 mps 745 mmHg 85%
    16:00 +2°C° 0.1 mm 5 mps 744 mmHg 85%
    17:00 +2°C° 0 mm 5 mps 744 mmHg 85%
    18:00 +2°C° 0 mm 5 mps 744 mmHg 84%
    19:00 +1°C° 0 mm 5 mps 743 mmHg 83%
    20:00 +1°C° 0 mm 5 mps 743 mmHg 82%
    21:00 +1°C° 0 mm 5 mps 742 mmHg 80%
    22:00 +1°C° 0 mm 5 mps 741 mmHg 79%
    23:00 +1°C° 0 mm 6 mps 740 mmHg 81%

    Tomorrow, 13 December, Friday

    Time Temperature Precipitation Wind Pressure Humidity
    00:00 -1°C° 0 mm 6 mps 740 mmHg 83%
    01:00 -1°C° 0 mm 7 mps 739 mmHg 86%
    02:00 -1°C° 0 mm 7 mps 738 mmHg 85%
    03:00 -2°C° 0 mm 8 mps 736 mmHg 85%
    04:00 -2°C° 0 mm 8 mps 735 mmHg 84%
    05:00 -2°C° 0 mm 8 mps 735 mmHg 83%
    06:00 -3°C° 0 mm 9 mps 734 mmHg 82%
    07:00 -3°C° 0 mm 9 mps 734 mmHg 81%
    08:00 -2°C° 0 mm 8 mps 733 mmHg 81%
    09:00 -2°C° 0 mm 8 mps 733 mmHg 81%
    10:00 -1°C° 0 mm 8 mps 733 mmHg 81%
    11:00 -1°C° 0 mm 8 mps 733 mmHg 80%
    12:00 -1°C° 0 mm 7 mps 733 mmHg 79%
    13:00 0°C° 0 mm 7 mps 733 mmHg 78%
    14:00 -1°C° 0 mm 6 mps 733 mmHg 79%
    15:00 -1°C° 0 mm 6 mps 733 mmHg 80%
    16:00 0°C° 0 mm 5 mps 733 mmHg 81%
    17:00 0°C° 0 mm 5 mps 734 mmHg 83%
    18:00 0°C° 0 mm 4 mps 734 mmHg 85%
    19:00 0°C° 0 mm 4 mps 734 mmHg 86%
    20:00 0°C° 0 mm 3 mps 734 mmHg 87%
    21:00 0°C° 0 mm 3 mps 734 mmHg 87%
    22:00 0°C° 0 mm 3 mps 735 mmHg 88%
    23:00 +1°C° 0 mm 2 mps 735 mmHg 90%

    Day after tomorrow, 14 December, Saturday

    Time Temperature Precipitation Wind Pressure Humidity
    00:00 +1°C° 0 mm 2 mps 735 mmHg 92%
    01:00 -1°C° 0 mm 2 mps 735 mmHg 94%
    02:00 +1°C° 0 mm 2 mps 735 mmHg 94%
    03:00 +1°C° 0 mm 2 mps 734 mmHg 95%
    04:00 +1°C° 0 mm 2 mps 734 mmHg 96%
    05:00 +1°C° 0 mm 3 mps 734 mmHg 96%
    06:00 +2°C° 0 mm 3 mps 734 mmHg 96%
    07:00 +3°C° 0 mm 4 mps 734 mmHg 96%
    08:00 +2°C° 0.2 mm 5 mps 734 mmHg 94%
    09:00 +2°C° 0.2 mm 5 mps 734 mmHg 93%
    10:00 +3°C° 0.2 mm 6 mps 733 mmHg 91%
    11:00 +3°C° 0.2 mm 5 mps 733 mmHg 92%
    12:00 +2°C° 0.2 mm 5 mps 733 mmHg 92%
    13:00 +2°C° 0.2 mm 5 mps 732 mmHg 93%
    14:00 +3°C° 1.1 mm 7 mps 733 mmHg 89%
    15:00 +2°C° 1.1 mm 8 mps 734 mmHg 86%
    16:00 +2°C° 1.1 mm 10 mps 734 mmHg 83%
    17:00 +2°C° 0.1 mm 10 mps 736 mmHg 78%
    18:00 +2°C° 0.1 mm 9 mps 737 mmHg 73%
    19:00 +2°C° 0.1 mm 9 mps 738 mmHg 68%
    20:00 +2°C° 0.2 mm 9 mps 738 mmHg 69%
    21:00 +1°C° 0.2 mm 9 mps 739 mmHg 69%
    22:00 +1°C° 0.2 mm 9 mps 740 mmHg 69%
    23:00 +1°C° 0 mm 8 mps 740 mmHg 69%

    15 December, Sunday

    Time Temperature Precipitation Wind Pressure Humidity
    00:00 +2°C° 0 mm 7 mps 741 mmHg 69%
    01:00 +2°C° 0 mm 7 mps 741 mmHg 69%
    02:00 +1°C° 0 mm 6 mps 741 mmHg 71%
    03:00 +1°C° 0 mm 6 mps 741 mmHg 72%
    04:00 +1°C° 0 mm 6 mps 742 mmHg 73%
    05:00 +1°C° 0 mm 6 mps 741 mmHg 76%
    06:00 -1°C° 0 mm 6 mps 740 mmHg 79%
    07:00 -1°C° 0 mm 7 mps 739 mmHg 82%
    08:00 0°C° 1.1 mm 8 mps 738 mmHg 79%
    09:00 +1°C° 1.1 mm 9 mps 737 mmHg 77%
    10:00 +3°C° 1.1 mm 10 mps 736 mmHg 75%
    11:00 +3°C° 0.3 mm 10 mps 737 mmHg 75%
    12:00 +3°C° 0.3 mm 10 mps 737 mmHg 75%
    13:00 +2°C° 0.3 mm 11 mps 738 mmHg 75%
    14:00 +2°C° 0.1 mm 11 mps 740 mmHg 71%
    15:00 +2°C° 0.1 mm 11 mps 742 mmHg 67%
    16:00 +2°C° 0.1 mm 11 mps 745 mmHg 64%
    17:00 +2°C° 0 mm 10 mps 746 mmHg 67%
    18:00 +2°C° 0 mm 9 mps 747 mmHg 70%
    19:00 +2°C° 0 mm 8 mps 748 mmHg 74%
    20:00 +1°C° 0 mm 8 mps 748 mmHg 75%
    21:00 +1°C° 0 mm 8 mps 748 mmHg 75%
    22:00 +1°C° 0 mm 9 mps 749 mmHg 76%
    23:00 +2°C° 0.8 mm 9 mps 749 mmHg 79%

    16 December, Monday

    Time Temperature Precipitation Wind Pressure Humidity
    00:00 +2°C° 0.8 mm 9 mps 749 mmHg 81%
    01:00 +2°C° 0.8 mm 10 mps 749 mmHg 84%
    02:00 +2°C° 0.1 mm 8 mps 749 mmHg 83%
    03:00 +3°C° 0.1 mm 7 mps 750 mmHg 82%
    04:00 +3°C° 0.1 mm 6 mps 750 mmHg 81%
    05:00 +3°C° 0.1 mm 6 mps 750 mmHg 82%
    06:00 +3°C° 0.1 mm 7 mps 751 mmHg 83%
    07:00 +3°C° 0.1 mm 7 mps 751 mmHg 84%
    08:00 +3°C° 0.1 mm 7 mps 752 mmHg 84%
    09:00 +3°C° 0.1 mm 7 mps 752 mmHg 85%
    10:00 +3°C° 0.1 mm 7 mps 753 mmHg 85%
    11:00 +3°C° 0 mm 7 mps 753 mmHg 85%
    12:00 +4°C° 0 mm 7 mps 753 mmHg 84%
    13:00 +4°C° 0 mm 6 mps 753 mmHg 84%
    14:00 +4°C° 0 mm 6 mps 753 mmHg 85%
    15:00 +5°C° 0 mm 5 mps 753 mmHg 86%
    16:00 +3°C° 0 mm 5 mps 753 mmHg 87%
    17:00 +3°C° 0 mm 5 mps 753 mmHg 88%
    18:00 +4°C° 0 mm 4 mps 753 mmHg 89%
    19:00 +4°C° 0 mm 4 mps 753 mmHg 90%
    20:00 +4°C° 0 mm 4 mps 753 mmHg 91%
    21:00 +4°C° 0 mm 3 mps 753 mmHg 92%
    22:00 +4°C° 0 mm 3 mps 753 mmHg 93%
    23:00 +4°C° 0 mm 3 mps 753 mmHg 94%

    17 December, Tuesday

    Time Temperature Precipitation Wind Pressure Humidity
    00:00 +3°C° 0 mm 3 mps 753 mmHg 94%
    01:00 +3°C° 0 mm 3 mps 753 mmHg 95%
    02:00 +3°C° 0 mm 3 mps 752 mmHg 95%
    03:00 +3°C° 0 mm 3 mps 752 mmHg 94%
    04:00 +3°C° 0 mm 3 mps 752 mmHg 94%
    05:00 +5°C° 0.2 mm 2 mps 751 mmHg 94%
    06:00 +5°C° 0.2 mm 2 mps 751 mmHg 94%
    07:00 +5°C° 0.2 mm 2 mps 751 mmHg 95%
    08:00 +5°C° 0.6 mm 2 mps 751 mmHg 95%
    09:00 +4°C° 0.6 mm 3 mps 751 mmHg 95%
    10:00 +4°C° 0.6 mm 3 mps 751 mmHg 96%
    11:00 +4°C° 0.2 mm 3 mps 751 mmHg 96%
    12:00 +5°C° 0.2 mm 2 mps 750 mmHg 96%
    13:00 +5°C° 0.2 mm 2 mps 750 mmHg 96%
    14:00 +5°C° 0.1 mm 2 mps 750 mmHg 96%
    15:00 +6°C° 0.1 mm 1 mps 751 mmHg 96%
    16:00 +6°C° 0.1 mm 1 mps 751 mmHg 95%
    17:00 +4°C° 0 mm 2 mps 751 mmHg 95%
    18:00 +4°C° 0 mm 2 mps 752 mmHg 95%
    19:00 +4°C° 0 mm 2 mps 752 mmHg 95%
    20:00 +3°C° 0 mm 3 mps 753 mmHg 94%
    21:00 +4°C° 0 mm 3 mps 754 mmHg 94%
    22:00 +4°C° 0 mm 3 mps 754 mmHg 94%
    23:00 +4°C° 0 mm 3 mps 755 mmHg 93%
    Show more